Weather in Sokolovo

Russia / Kurgan Oblast     55°38′31″N   64°04′12″E
temp.,
°C
wind,
m/s
gust,
m/s
humid.,
%
clouds,
%
prec.,
mm/h
press.,
hPa
HPBL,
m
25 may, wed
wed2523:00+15ese3681100 0.0 100996
02:00+14sse41368100 0.0 1009190
05:00+13se41369100 0.0 1009190
08:00+17sse61563100 0.0 1008314
11:00+22sse71451100 0.0 1009773
14:00+24sse71050100 0.0 1009998
17:00+25sse6125246 0.0 10081429
20:00+16w5982100 0.3 1009253
26 may, thu
thu2623:00+15ese358160 0.4 100877
02:00+14wsw34875 0.1 100971
05:00+12wnw359547 0.1 1009106
08:00+14nnw468499 0.0 1009342
11:00+17nnw686870 0.1 1010711
14:00+18n786193 0.4 10101098
17:00+14nnw91382100 3.3 1008628
20:00+12nnw71293100 4.6 1008666
27 may, fri
fri2723:00+10nnw101694100 8.7 1005584
02:00+10nw91692100 0.1 1006692
05:00+8nw91787100 0.4 1007800
08:00+8wnw81585100 0.1 1008782
11:00+13nw912610 0.1 10101326
14:00+15wnw79526 0.0 10111906
17:00+16wnw69515 0.0 10121980
20:00+13sw367397 0.0 1012115
28 may, sat
sat2823:00+10sw487396 0.0 1013129
02:00+10wsw477773 0.0 1013111
05:00+9wsw22825 0.0 101316
08:00+13ssw347296 0.0 1013303
11:00+18wsw4659100 0.0 1013959
14:00+20wsw5649100 0.0 10132310
17:00+19wsw3560100 0.0 1014408
20:00+16ssw227715 0.0 101535
29 may, sun
sun2923:00+12sw338569 0.0 101736
02:00+11sw34894 0.0 101752
05:00+11sw349240 0.0 101857
08:00+16sw457677 0.0 1019331
11:00+19wsw3563100 0.0 1020858
14:00+22sw455552 0.0 10201216
17:00+22wsw4557100 0.0 10201186
20:00+19ssw227369 0.0 102026